Home   Weather   Annapolis   Past weeks
Flag for USA

Past Weather in Annapolis, Maryland, USA — Yesterday and Last 2 Weeks

Now
36 °F

Fog.


Feels Like: 33 °F
Forecast: 43 / 33 °F
Wind: 3 mph from Northeast

Location: Annapolis - United States Naval Academy

Current Time: Jan 18, 2019 at 6:42:09 am

Latest Report: Jan 18, 2019 at 5:54 am


Visibility: 4 mi

Pressure: 30.08 "Hg

Humidity: 85%

Dew Point: 32 °F

Location of AnnapolisLocation

Past Weather in Annapolis — Graph

°F

Annapolis Temperature Yesterday

Maximum temperature yesterday: 40 °F (at 12:54 am)
Minimum temperature yesterday: 35 °F (at 8:54 pm)
Average temperature yesterday: 37 °F

High & Low Weather Summary for the Past Weeks

 TemperatureHumidityPressure
High56 °F (Jan 6, 1:54 pm)90% (Jan 5, 4:54 am)30.58 "Hg (Jan 5, 4:54 am)
Low25 °F (Jan 15, 12:54 am)33% (Jan 6, 2:54 pm)29.46 "Hg (Jan 5, 5:41 am)
Average39 °F65%30.12 "Hg
* Reported Jan 3 5:54 am — Jan 18 5:13 am, Annapolis. Weather by CustomWeather, © 2019

Note: Actual official high and low records may vary slightly from our data, if they occured in-between our weather recording intervals... More about our weather records

Advertising

Annapolis Weather History for the Previous 24 Hours

Scroll right to see more
 ConditionsComfort  
Time TempWeatherWind HumidityBarometerVisibility
5:13 am
Fri, Jan 18
36 °FFog.No wind85%30.07 "Hg5 mi
4:54 am36 °FFog.No wind85%30.07 "Hg4 mi
4:37 am36 °FLight snow. Low clouds.No wind82%30.08 "Hg3 mi
4:15 am36 °FLight snow. Fog.No wind85%30.09 "Hg3 mi
4:02 am36 °FLight snow. Low clouds.No wind82%30.09 "Hg2 mi
2:54 am35 °FFog.No wind85%30.12 "Hg5 mi
1:54 am35 °FLight snow. Overcast.5 mph82%30.14 "Hg4 mi
1:02 am35 °FLight snow. Overcast.5 mph82%30.15 "Hg2 mi
12:09 am35 °FLight snow. Fog.3 mph85%30.18 "Hg1 mi
11:54 pm
Thu, Jan 17
36 °FLight snow. Mostly cloudy.3 mph82%30.19 "Hg2 mi
11:26 pm36 °FLight snow. Overcast.No wind82%30.19 "Hg3 mi
10:54 pm36 °FLight snow. Overcast.3 mph82%30.21 "Hg6 mi
10:21 pm36 °FMostly cloudy.5 mph82%30.21 "Hg7 mi
9:54 pm36 °FMostly cloudy.8 mph82%30.22 "Hg7 mi
9:44 pm35 °FFog.5 mph85%30.21 "Hg6 mi
9:14 pm35 °FLight snow. Fog.5 mph85%30.22 "Hg3 mi
8:54 pm35 °FLight snow. Fog.5 mph85%30.23 "Hg2 mi
7:54 pm36 °FLight snow. Overcast.6 mph79%30.25 "Hg1 mi
6:54 pm38 °FOvercast.3 mph63%30.25 "Hg10 mi
5:54 pm38 °FOvercast.7 mph63%30.26 "Hg10 mi
4:54 pm38 °FOvercast.7 mph60%30.26 "Hg10 mi
3:54 pm38 °FOvercast.6 mph60%30.29 "Hg10 mi
2:54 pm38 °FOvercast.7 mph58%30.29 "Hg10 mi
1:54 pm38 °FOvercast.8 mph55%30.31 "Hg10 mi
12:54 pm38 °FOvercast.6 mph53%30.34 "Hg10 mi
11:54 am37 °FOvercast.7 mph52%30.37 "Hg10 mi
10:54 am37 °FOvercast.7 mph54%30.40 "Hg10 mi
9:54 am37 °FOvercast.7 mph54%30.40 "Hg10 mi
8:54 am38 °FPartly sunny.6 mph53%30.37 "Hg10 mi
7:54 am37 °FSunny.5 mph54%30.37 "Hg10 mi
6:54 am38 °FPassing clouds.5 mph60%30.35 "Hg10 mi
Weather by CustomWeather, © 2019

See weather overview